contact:dominique.lefevre@mio.osupytheas.fr, maurice.libes@osupytheas.fr, didier.mallarino@osupytheas.fr
Project:EMSO http://www.emso-fr.org/EMSO-France
Depth: 2436.0 m
Title:EMSO Ligure Ouest : Data MII capteur AQUADOPP
Date,Latitude,Longitude,X_East,Y_North,Z_Up,Amplitude_X,Amplitude_Y,Amplitude_Z,Batterie,SoundSpeed,Heading,Pitch,Roll,Pressure,TIS,Speed,Direction
, degrees North, degrees East, m.s-1, m.s-1,m.s-1, 1, 1, 1, Volt, m.s-1, degree, degree, degree, dbar, degree_C, m.s-1, degree
2023-07-02T00:04:03,42.805,6.029,0.06,-0.015,0.007,102.0,101.0,101.0,13.4,1505.2,331.4,-0.7,1.8,2471.385,13.28,0.061,104.0
2023-07-02T00:07:03,42.805,6.029,0.07,-0.033,0.011,102.0,101.0,101.0,13.4,1505.2,333.4,-0.8,1.8,2471.371,13.28,0.077,115.2
2023-07-02T00:10:03,42.805,6.029,0.093,-0.025,0.014,101.0,102.0,100.0,13.3,1505.2,338.2,-0.8,1.8,2471.333,13.28,0.096,105.0
2023-07-02T00:13:03,42.805,6.029,0.065,0.004,0.047,101.0,102.0,100.0,13.4,1505.2,333.4,-0.8,1.8,2471.357,13.28,0.065,86.5
2023-07-02T00:16:03,42.805,6.029,0.079,-0.02,-0.005,102.0,102.0,101.0,13.4,1505.2,325.8,-0.8,1.8,2471.366,13.28,0.081,104.2
2023-07-02T00:19:03,42.805,6.029,0.05,-0.047,-0.004,102.0,102.0,100.0,13.4,1505.2,343.6,-0.7,1.8,2471.337,13.29,0.068,133.2
2023-07-02T00:22:03,42.805,6.029,0.059,-0.051,-0.044,101.0,101.0,102.0,13.4,1505.2,342.3,-0.8,1.8,2471.354,13.29,0.077,130.8
2023-07-02T00:25:03,42.805,6.029,0.057,-0.058,-0.009,101.0,101.0,100.0,13.4,1505.2,349.9,-0.8,1.8,2471.319,13.29,0.081,135.5
2023-07-02T00:28:03,42.805,6.029,0.079,-0.008,-0.013,101.0,100.0,102.0,13.4,1505.2,329.0,-0.8,1.8,2471.324,13.29,0.079,95.8
2023-07-02T00:31:03,42.805,6.029,0.037,-0.022,-0.042,101.0,101.0,100.0,13.4,1505.2,340.4,-0.7,1.9,2471.362,13.29,0.043,120.7
2023-07-02T00:34:03,42.805,6.029,0.072,-0.014,0.0,101.0,101.0,100.0,13.4,1505.2,328.6,-0.7,1.8,2471.353,13.29,0.073,101.0
2023-07-02T00:37:03,42.805,6.029,0.058,-0.076,-0.032,101.0,101.0,101.0,13.3,1505.2,353.1,-0.8,1.8,2471.34,13.29,0.095,142.7
2023-07-02T00:40:03,42.805,6.029,0.038,-0.015,-0.018,101.0,101.0,100.0,13.4,1505.2,339.1,-0.8,1.8,2471.334,13.29,0.04,111.5
2023-07-02T00:43:03,42.805,6.029,0.048,-0.031,-0.043,102.0,102.0,100.0,13.4,1505.2,328.1,-0.8,1.8,2471.341,13.29,0.057,122.9
2023-07-02T00:46:03,42.805,6.029,0.068,-0.021,-0.039,102.0,101.0,101.0,13.3,1505.2,324.2,-0.7,1.8,2471.307,13.29,0.071,107.2
2023-07-02T00:49:03,42.805,6.029,0.045,-0.003,-0.008,101.0,103.0,100.0,13.4,1505.2,329.0,-0.8,1.8,2471.341,13.29,0.045,93.8
2023-07-02T00:52:03,42.805,6.029,0.031,-0.052,-0.046,101.0,101.0,101.0,13.4,1505.2,348.6,-0.8,1.8,2471.358,13.29,0.06,149.2
2023-07-02T00:55:03,42.805,6.029,0.071,-0.03,-0.008,103.0,100.0,100.0,13.4,1505.2,337.3,-0.8,1.8,2471.338,13.29,0.077,112.9
2023-07-02T00:58:03,42.805,6.029,0.037,-0.006,-0.006,101.0,101.0,101.0,13.4,1505.2,331.6,-0.7,1.8,2471.356,13.29,0.037,99.2
2023-07-02T01:04:03,42.805,6.029,0.068,-0.028,-0.002,102.0,102.0,102.0,13.4,1505.2,342.2,-0.8,1.8,2471.362,13.28,0.073,112.4
2023-07-02T01:07:03,42.805,6.029,0.078,-0.024,-0.038,101.0,102.0,101.0,13.4,1505.2,323.4,-0.8,1.8,2471.401,13.28,0.081,107.1
2023-07-02T01:10:03,42.805,6.029,0.061,0.0,0.04,100.0,102.0,101.0,13.4,1505.2,327.1,-0.8,1.8,2471.337,13.28,0.06,90.0
2023-07-02T01:13:03,42.805,6.029,0.036,0.0,0.004,102.0,103.0,101.0,13.4,1505.2,327.1,-0.8,1.8,2471.369,13.28,0.036,90.0
2023-07-02T01:16:03,42.805,6.029,0.062,-0.025,0.004,101.0,102.0,100.0,13.4,1505.2,332.1,-0.7,1.8,2471.362,13.29,0.066,112.0
2023-07-02T01:19:03,42.805,6.029,0.112,-0.031,-0.003,100.0,102.0,101.0,13.4,1505.2,326.0,-0.8,1.8,2471.355,13.29,0.116,105.5
2023-07-02T01:22:03,42.805,6.029,0.05,-0.045,-0.044,99.0,103.0,100.0,13.4,1505.2,333.4,-0.8,1.8,2471.365,13.29,0.067,132.0
2023-07-02T01:25:03,42.805,6.029,0.067,-0.044,0.01,102.0,101.0,100.0,13.4,1505.2,349.1,-0.8,1.8,2471.387,13.29,0.08,123.3
2023-07-02T01:28:03,42.805,6.029,0.045,0.002,0.031,102.0,103.0,100.0,13.3,1505.2,330.3,-0.8,1.8,2471.335,13.29,0.045,87.5
2023-07-02T01:31:03,42.805,6.029,0.066,-0.045,-0.002,102.0,101.0,100.0,13.4,1505.2,351.8,-0.8,1.9,2471.305,13.29,0.079,124.3
2023-07-02T01:34:03,42.805,6.029,0.05,-0.026,-0.021,101.0,101.0,101.0,13.4,1505.2,331.0,-0.8,1.8,2471.331,13.29,0.056,117.5
2023-07-02T01:37:03,42.805,6.029,0.073,0.007,0.06,102.0,102.0,100.0,13.4,1505.2,325.0,-0.7,1.8,2471.37,13.29,0.073,84.5
2023-07-02T01:40:03,42.805,6.029,0.065,-0.03,0.009,102.0,101.0,101.0,13.4,1505.2,331.2,-0.8,1.8,2471.31,13.29,0.071,114.8
2023-07-02T01:43:03,42.805,6.029,0.059,-0.026,-0.009,100.0,102.0,101.0,13.4,1505.2,346.2,-0.7,1.8,2471.357,13.29,0.064,113.8
2023-07-02T01:46:03,42.805,6.029,0.073,-0.025,-0.037,101.0,102.0,101.0,13.4,1505.2,323.4,-0.7,1.8,2471.344,13.29,0.077,108.9
2023-07-02T01:49:03,42.805,6.029,0.061,-0.013,0.011,102.0,102.0,101.0,13.4,1505.2,325.3,-0.7,1.8,2471.326,13.29,0.062,102.0
2023-07-02T01:52:03,42.805,6.029,0.059,-0.028,-0.008,103.0,102.0,100.0,13.4,1505.2,342.3,-0.8,1.8,2471.343,13.29,0.065,115.4
2023-07-02T01:55:03,42.805,6.029,0.068,-0.013,0.002,102.0,103.0,99.0,13.4,1505.2,332.4,-0.8,1.8,2471.345,13.29,0.069,100.8
2023-07-02T01:58:03,42.805,6.029,0.075,-0.033,0.014,102.0,102.0,101.0,13.4,1505.2,330.6,-0.8,1.8,2471.329,13.29,0.081,113.7
2023-07-02T02:04:03,42.805,6.029,0.107,0.003,0.024,102.0,101.0,100.0,13.4,1505.2,324.0,-0.8,1.8,2471.418,13.28,0.107,88.4
2023-07-02T02:07:03,42.805,6.029,0.055,-0.004,-0.003,102.0,102.0,101.0,13.4,1505.2,320.7,-0.8,1.8,2471.38,13.28,0.055,94.2
2023-07-02T02:10:03,42.805,6.029,0.039,-0.005,0.045,102.0,101.0,101.0,13.4,1505.2,341.2,-0.8,1.8,2471.369,13.28,0.039,97.3
2023-07-02T02:13:03,42.805,6.029,0.101,-0.017,-0.002,101.0,103.0,100.0,13.4,1505.2,331.6,-0.8,1.8,2471.356,13.28,0.102,99.6
2023-07-02T02:16:03,42.805,6.029,0.076,-0.026,-0.011,101.0,103.0,100.0,13.4,1505.2,329.8,-0.7,1.8,2471.394,13.28,0.08,108.9
2023-07-02T02:19:03,42.805,6.029,0.067,-0.046,-0.024,101.0,101.0,101.0,13.4,1505.2,346.7,-0.8,1.8,2471.346,13.29,0.081,124.5
2023-07-02T02:22:03,42.805,6.029,0.045,-0.015,-0.024,101.0,103.0,101.0,13.4,1505.2,321.0,-0.8,1.8,2471.351,13.29,0.047,108.4
2023-07-02T02:25:03,42.805,6.029,0.078,-0.019,0.018,101.0,102.0,101.0,13.4,1505.2,338.2,-0.8,1.8,2471.358,13.29,0.08,103.7
2023-07-02T02:28:03,42.805,6.029,0.077,-0.03,0.002,102.0,101.0,101.0,13.4,1505.2,331.2,-0.8,1.8,2471.363,13.29,0.082,111.3
2023-07-02T02:31:03,42.805,6.029,0.064,-0.046,0.003,101.0,102.0,100.0,13.4,1505.2,348.2,-0.8,1.8,2471.347,13.29,0.078,125.7
2023-07-02T02:34:03,42.805,6.029,0.06,-0.046,-0.002,102.0,102.0,101.0,13.4,1505.2,345.1,-0.8,1.8,2471.377,13.29,0.075,127.5
2023-07-02T02:37:03,42.805,6.029,0.073,-0.018,-0.027,102.0,103.0,101.0,13.4,1505.2,337.4,-0.7,1.8,2471.343,13.29,0.075,103.8
2023-07-02T02:40:03,42.805,6.029,0.034,-0.03,-0.057,101.0,103.0,100.0,13.4,1505.2,331.2,-0.7,1.8,2471.356,13.29,0.045,131.4
2023-07-02T02:43:03,42.805,6.029,0.05,-0.002,-0.02,101.0,103.0,101.0,13.4,1505.2,330.2,-0.8,1.8,2471.365,13.29,0.05,92.3
2023-07-02T02:46:03,42.805,6.029,0.08,-0.005,0.004,102.0,101.0,101.0,13.4,1505.2,331.8,-0.8,1.8,2471.382,13.29,0.08,93.6
2023-07-02T02:49:03,42.805,6.029,0.062,-0.039,0.007,102.0,103.0,100.0,13.3,1505.2,344.2,-0.8,1.8,2471.366,13.29,0.073,122.2
2023-07-02T02:52:03,42.805,6.029,0.078,-0.02,-0.014,102.0,102.0,100.0,13.4,1505.2,323.8,-0.8,1.8,2471.363,13.29,0.08,104.4
2023-07-02T02:55:03,42.805,6.029,0.076,-0.035,-0.008,102.0,101.0,100.0,13.4,1505.2,326.0,-0.8,1.8,2471.364,13.29,0.083,114.7
2023-07-02T02:58:03,42.805,6.029,0.078,-0.029,-0.037,102.0,101.0,101.0,13.4,1505.2,336.0,-0.8,1.8,2471.369,13.29,0.083,110.4
2023-07-02T03:04:03,42.805,6.029,0.054,-0.019,0.011,101.0,102.0,101.0,13.4,1505.2,331.4,-0.7,1.8,2471.421,13.28,0.057,109.4
2023-07-02T03:07:03,42.805,6.029,0.05,0.0,-0.003,102.0,101.0,100.0,13.4,1505.2,330.5,-0.8,1.8,2471.423,13.28,0.05,90.0
2023-07-02T03:10:03,42.805,6.029,0.044,-0.013,-0.01,103.0,100.0,101.0,13.4,1505.2,333.0,-0.8,1.8,2471.367,13.28,0.045,106.5
2023-07-02T03:13:03,42.805,6.029,0.049,-0.008,0.013,101.0,102.0,100.0,13.4,1505.2,338.8,-0.8,1.8,2471.406,13.28,0.049,99.3
2023-07-02T03:16:03,42.805,6.029,0.068,0.006,0.055,101.0,103.0,100.0,13.4,1505.2,335.5,-0.8,1.8,2471.44,13.28,0.068,85.0
2023-07-02T03:19:03,42.805,6.029,0.088,-0.037,-0.016,102.0,102.0,101.0,13.4,1505.2,335.1,-0.8,1.8,2471.355,13.29,0.095,112.8
2023-07-02T03:22:03,42.805,6.029,0.058,-0.015,0.021,102.0,101.0,101.0,13.4,1505.2,323.4,-0.8,1.8,2471.387,13.29,0.059,104.5
2023-07-02T03:25:03,42.805,6.029,0.063,-0.007,0.013,102.0,102.0,101.0,13.4,1505.2,329.0,-0.8,1.8,2471.406,13.29,0.063,96.3
2023-07-02T03:28:03,42.805,6.029,0.073,-0.034,0.001,101.0,102.0,101.0,13.4,1505.2,338.9,-0.8,1.8,2471.39,13.29,0.08,115.0
2023-07-02T03:31:03,42.805,6.029,0.079,-0.032,-0.019,101.0,101.0,101.0,13.4,1505.2,328.5,-0.8,1.8,2471.377,13.29,0.085,112.0
2023-07-02T03:34:03,42.805,6.029,0.052,-0.021,-0.011,102.0,102.0,99.0,13.4,1505.2,328.1,-0.8,1.8,2471.41,13.29,0.056,112.0
2023-07-02T03:37:03,42.805,6.029,0.079,-0.036,-0.004,100.0,100.0,101.0,13.4,1505.2,330.0,-0.7,1.8,2471.403,13.29,0.086,114.5
2023-07-02T03:40:03,42.805,6.029,0.041,-0.025,-0.012,101.0,101.0,101.0,13.3,1505.2,330.3,-0.8,1.8,2471.38,13.29,0.048,121.4
2023-07-02T03:43:03,42.805,6.029,0.057,-0.016,-0.001,100.0,103.0,100.0,13.4,1505.2,327.6,-0.7,1.8,2471.355,13.29,0.059,105.7
2023-07-02T03:46:03,42.805,6.029,0.058,-0.025,0.002,104.0,99.0,100.0,13.4,1505.2,348.6,-0.8,1.8,2471.384,13.29,0.063,113.3
2023-07-02T03:49:03,42.805,6.029,0.08,-0.068,-0.003,100.0,102.0,101.0,13.4,1505.2,341.2,-0.7,1.8,2471.41,13.29,0.104,130.4
2023-07-02T03:52:03,42.805,6.029,0.068,-0.025,-0.031,101.0,103.0,101.0,13.4,1505.2,321.3,-0.7,1.8,2471.411,13.29,0.072,110.2
2023-07-02T03:55:03,42.805,6.029,0.051,-0.014,-0.016,101.0,102.0,101.0,13.4,1505.2,322.1,-0.7,1.8,2471.379,13.29,0.052,105.3
2023-07-02T03:58:03,42.805,6.029,0.041,-0.004,0.015,103.0,101.0,100.0,13.3,1505.2,343.4,-0.8,1.8,2471.424,13.29,0.041,95.6
2023-07-02T04:04:03,42.805,6.029,0.073,-0.023,0.011,101.0,101.0,101.0,13.3,1505.2,331.6,-0.8,1.8,2471.437,13.28,0.076,107.5
2023-07-02T04:07:03,42.805,6.029,0.067,-0.03,-0.013,101.0,101.0,100.0,13.4,1505.2,335.6,-0.8,1.8,2471.464,13.28,0.073,114.1
2023-07-02T04:10:03,42.805,6.029,0.05,-0.003,-0.013,101.0,101.0,102.0,13.4,1505.2,320.3,-0.8,1.8,2471.442,13.28,0.05,93.4
2023-07-02T04:13:03,42.805,6.029,0.066,-0.022,0.005,102.0,101.0,101.0,13.3,1505.2,326.9,-0.8,1.8,2471.428,13.28,0.069,108.4
2023-07-02T04:16:03,42.805,6.029,0.064,-0.02,-0.006,102.0,102.0,101.0,13.4,1505.2,345.1,-0.8,1.8,2471.441,13.28,0.067,107.4
2023-07-02T04:19:03,42.805,6.029,0.019,0.017,0.036,103.0,101.0,100.0,13.4,1505.2,329.8,-0.8,1.8,2471.41,13.29,0.025,48.2
2023-07-02T04:22:03,42.805,6.029,0.061,-0.038,-0.008,102.0,102.0,101.0,13.4,1505.2,340.3,-0.8,1.8,2471.422,13.29,0.071,121.9
2023-07-02T04:25:03,42.805,6.029,0.064,-0.041,0.023,101.0,101.0,101.0,13.4,1505.2,350.5,-0.8,1.8,2471.447,13.29,0.076,122.6
2023-07-02T04:28:03,42.805,6.029,0.047,-0.002,0.013,101.0,101.0,101.0,13.4,1505.2,326.0,-0.8,1.8,2471.438,13.29,0.047,92.4
2023-07-02T04:31:03,42.805,6.029,0.051,-0.015,0.017,102.0,100.0,101.0,13.4,1505.2,339.3,-0.8,1.8,2471.426,13.29,0.053,106.4
2023-07-02T04:34:03,42.805,6.029,0.054,-0.019,-0.003,102.0,101.0,100.0,13.4,1505.2,351.8,-0.8,1.8,2471.443,13.29,0.057,109.4
2023-07-02T04:37:03,42.805,6.029,0.062,-0.014,-0.008,102.0,101.0,101.0,13.3,1505.2,325.4,-0.8,1.8,2471.42,13.29,0.063,102.7
2023-07-02T04:40:03,42.805,6.029,0.056,-0.024,-0.017,101.0,101.0,100.0,13.4,1505.2,335.2,-0.8,1.9,2471.435,13.29,0.06,113.2
2023-07-02T04:43:03,42.805,6.029,0.079,-0.006,0.031,101.0,101.0,101.0,13.3,1505.2,327.4,-0.8,1.8,2471.438,13.29,0.079,94.3
2023-07-02T04:46:03,42.805,6.029,0.054,-0.046,-0.028,102.0,100.0,101.0,13.4,1505.2,337.1,-0.8,1.8,2471.462,13.29,0.07,130.4
2023-07-02T04:49:03,42.805,6.029,0.074,-0.016,0.01,102.0,102.0,101.0,13.3,1505.2,347.4,-0.7,1.8,2471.425,13.29,0.075,102.2
2023-07-02T04:52:03,42.805,6.029,0.048,-0.025,-0.025,102.0,103.0,100.0,13.3,1505.2,341.1,-0.8,1.8,2471.427,13.29,0.054,117.5
2023-07-02T04:55:03,42.805,6.029,0.082,-0.034,-0.052,101.0,101.0,102.0,13.4,1505.2,331.3,-0.8,1.8,2471.413,13.29,0.088,112.5
2023-07-02T04:58:03,42.805,6.029,0.051,-0.015,-0.043,102.0,102.0,100.0,13.3,1505.2,323.1,-0.8,1.8,2471.437,13.29,0.053,106.4
2023-07-02T05:04:03,42.805,6.029,0.087,-0.043,-0.033,102.0,102.0,100.0,13.4,1505.2,337.5,-0.8,1.8,2471.479,13.28,0.097,116.3
2023-07-02T05:07:03,42.805,6.029,0.06,-0.027,-0.011,102.0,103.0,100.0,13.3,1505.2,332.1,-0.7,1.8,2471.479,13.28,0.065,114.2
2023-07-02T05:10:03,42.805,6.029,0.056,-0.041,-0.011,102.0,104.0,100.0,13.4,1505.2,333.9,-0.8,1.8,2471.467,13.28,0.069,126.2
2023-07-02T05:13:03,42.805,6.029,0.06,-0.003,0.006,101.0,101.0,101.0,13.4,1505.2,332.9,-0.7,1.8,2471.459,13.28,0.06,92.9
2023-07-02T05:16:03,42.805,6.029,0.057,-0.014,0.047,100.0,101.0,101.0,13.4,1505.2,343.0,-0.8,1.8,2471.473,13.28,0.058,103.8
2023-07-02T05:19:03,42.805,6.029,0.05,-0.008,0.002,102.0,101.0,100.0,13.4,1505.2,331.3,-0.7,1.8,2471.482,13.29,0.05,99.1
2023-07-02T05:22:03,42.805,6.029,0.048,-0.024,-0.012,103.0,102.0,100.0,13.4,1505.2,332.3,-0.8,1.8,2471.43,13.29,0.053,116.6
2023-07-02T05:25:03,42.805,6.029,0.062,-0.025,-0.015,102.0,101.0,100.0,13.4,1505.2,335.6,-0.8,1.8,2471.44,13.29,0.066,112.0
2023-07-02T05:28:03,42.805,6.029,0.087,-0.04,-0.02,102.0,101.0,100.0,13.4,1505.2,331.8,-0.8,1.8,2471.449,13.29,0.095,114.7
2023-07-02T05:31:03,42.805,6.029,0.081,-0.046,-0.039,101.0,101.0,101.0,13.4,1505.2,331.8,-0.8,1.8,2471.447,13.29,0.093,119.6
2023-07-02T05:34:03,42.805,6.029,0.063,-0.033,-0.006,101.0,100.0,101.0,13.4,1505.2,347.1,-0.8,1.8,2471.452,13.29,0.071,117.6
2023-07-02T05:37:03,42.805,6.029,0.036,-0.011,-0.016,100.0,101.0,101.0,13.4,1505.2,335.0,-0.8,1.8,2471.441,13.29,0.037,107.0
2023-07-02T05:40:03,42.805,6.029,0.047,-0.024,-0.018,101.0,101.0,101.0,13.4,1505.2,333.8,-0.8,1.8,2471.459,13.29,0.052,117.0
2023-07-02T05:43:03,42.805,6.029,0.075,-0.043,-0.032,102.0,101.0,101.0,13.4,1505.2,339.8,-0.7,1.8,2471.424,13.29,0.086,119.8
2023-07-02T05:46:03,42.805,6.029,0.075,-0.01,0.024,101.0,101.0,101.0,13.4,1505.2,329.9,-0.7,1.8,2471.481,13.29,0.075,97.6
2023-07-02T05:49:03,42.805,6.029,0.054,0.012,0.02,100.0,101.0,101.0,13.3,1505.2,331.9,-0.7,1.8,2471.428,13.29,0.055,77.5
2023-07-02T05:52:03,42.805,6.029,0.065,-0.011,0.017,102.0,101.0,101.0,13.4,1505.2,344.7,-0.8,1.8,2471.452,13.29,0.065,99.6
2023-07-02T05:55:03,42.805,6.029,0.071,-0.033,0.032,101.0,101.0,101.0,13.3,1505.2,344.4,-0.8,1.8,2471.426,13.29,0.078,114.9
2023-07-02T05:58:03,42.805,6.029,0.032,-0.021,0.004,103.0,102.0,101.0,13.4,1505.2,346.2,-0.8,1.8,2471.47,13.29,0.038,123.3
2023-07-02T06:04:03,42.805,6.029,0.059,-0.022,0.01,101.0,103.0,100.0,13.3,1505.2,340.3,-0.8,1.8,2471.487,13.28,0.062,110.4
2023-07-02T06:07:03,42.805,6.029,0.048,-0.041,-0.033,101.0,102.0,101.0,13.4,1505.2,337.0,-0.8,1.8,2471.452,13.28,0.063,130.5
2023-07-02T06:10:03,42.805,6.029,0.081,-0.025,-0.008,102.0,100.0,101.0,13.4,1505.2,329.2,-0.8,1.8,2471.47,13.28,0.084,107.1
2023-07-02T06:13:03,42.805,6.029,0.053,-0.014,-0.023,101.0,102.0,101.0,13.3,1505.2,330.6,-0.8,1.8,2471.447,13.28,0.054,104.8
2023-07-02T06:16:03,42.805,6.029,0.035,-0.013,-0.005,103.0,102.0,101.0,13.4,1505.2,338.5,-0.8,1.9,2471.432,13.29,0.037,110.4
2023-07-02T06:19:03,42.805,6.029,0.079,-0.013,0.006,102.0,103.0,100.0,13.3,1505.2,333.4,-0.8,1.8,2471.48,13.29,0.08,99.3
2023-07-02T06:22:03,42.805,6.029,0.045,-0.043,-0.012,102.0,101.0,100.0,13.4,1505.2,343.5,-0.7,1.8,2471.419,13.29,0.062,133.7
2023-07-02T06:25:03,42.805,6.029,0.039,-0.054,-0.027,102.0,101.0,100.0,13.4,1505.2,348.9,-0.8,1.8,2471.441,13.29,0.066,144.2
2023-07-02T06:28:03,42.805,6.029,0.06,-0.039,-0.035,100.0,103.0,101.0,13.4,1505.2,340.3,-0.8,1.8,2471.452,13.29,0.071,123.0
2023-07-02T06:31:03,42.805,6.029,0.072,-0.004,-0.022,101.0,103.0,101.0,13.4,1505.2,323.3,-0.8,1.8,2471.442,13.29,0.072,93.2
2023-07-02T06:34:03,42.805,6.029,0.046,-0.027,-0.024,102.0,101.0,101.0,13.4,1505.2,335.5,-0.8,1.8,2471.432,13.29,0.053,120.4
2023-07-02T06:37:03,42.805,6.029,0.075,-0.024,0.001,101.0,102.0,101.0,13.4,1505.2,349.5,-0.8,1.8,2471.419,13.29,0.078,107.7
2023-07-02T06:40:03,42.805,6.029,0.085,-0.025,-0.012,102.0,102.0,100.0,13.3,1505.2,326.5,-0.7,1.8,2471.407,13.29,0.088,106.4
2023-07-02T06:43:03,42.805,6.029,0.036,-0.026,0.0,101.0,102.0,100.0,13.4,1505.2,349.3,-0.8,1.8,2471.452,13.29,0.044,125.8
2023-07-02T06:46:03,42.805,6.029,0.055,0.011,0.034,101.0,102.0,100.0,13.4,1505.2,336.0,-0.8,1.8,2471.399,13.29,0.056,78.7
2023-07-02T06:49:03,42.805,6.029,0.061,-0.031,-0.01,102.0,102.0,100.0,13.4,1505.2,332.9,-0.7,1.8,2471.425,13.29,0.068,116.9
2023-07-02T06:52:03,42.805,6.029,0.029,-0.028,0.0,102.0,101.0,100.0,13.4,1505.2,344.0,-0.8,1.8,2471.431,13.29,0.04,134.0
2023-07-02T06:55:03,42.805,6.029,0.062,-0.011,0.003,101.0,103.0,100.0,13.3,1505.2,322.3,-0.7,1.8,2471.45,13.29,0.062,100.1
2023-07-02T06:58:03,42.805,6.029,0.069,-0.014,0.004,102.0,101.0,101.0,13.4,1505.2,332.5,-0.8,1.8,2471.454,13.29,0.07,101.5
2023-07-02T07:04:03,42.805,6.029,0.085,-0.006,0.025,103.0,101.0,100.0,13.3,1505.2,326.5,-0.7,1.8,2471.485,13.28,0.085,94.0
2023-07-02T07:07:03,42.805,6.029,0.073,-0.007,-0.012,101.0,102.0,101.0,13.3,1505.2,318.9,-0.8,1.8,2471.443,13.28,0.073,95.5
2023-07-02T07:10:03,42.805,6.029,0.046,0.017,-0.004,102.0,102.0,103.0,13.4,1505.2,323.3,-0.8,1.8,2471.435,13.28,0.049,69.7
2023-07-02T07:13:03,42.805,6.029,0.062,-0.009,0.013,101.0,102.0,100.0,13.3,1505.2,332.5,-0.8,1.8,2471.451,13.28,0.062,98.3
2023-07-02T07:16:03,42.805,6.029,0.072,0.001,0.033,102.0,103.0,101.0,13.4,1505.2,342.8,-0.8,1.8,2471.449,13.29,0.072,89.2
2023-07-02T07:19:03,42.805,6.029,0.094,-0.038,0.025,102.0,102.0,100.0,13.4,1505.2,349.3,-0.8,1.8,2471.429,13.29,0.101,112.0
2023-07-02T07:22:03,42.805,6.029,0.038,-0.016,0.016,103.0,101.0,100.0,13.4,1505.2,335.0,-0.8,1.8,2471.395,13.29,0.041,112.8
2023-07-02T07:25:03,42.805,6.029,0.077,-0.013,0.048,102.0,102.0,100.0,13.4,1505.2,341.9,-0.8,1.9,2471.404,13.29,0.078,99.6
2023-07-02T07:28:03,42.805,6.029,0.052,-0.022,-0.027,102.0,102.0,100.0,13.4,1505.2,329.7,-0.7,1.8,2471.455,13.29,0.056,112.9
2023-07-02T07:31:03,42.805,6.029,0.07,-0.028,-0.026,101.0,104.0,100.0,13.4,1505.2,332.3,-0.8,1.8,2471.378,13.29,0.075,111.8
2023-07-02T07:34:03,42.805,6.029,0.045,0.009,0.006,102.0,102.0,102.0,13.4,1505.2,319.8,-0.8,1.8,2471.384,13.29,0.045,78.7
2023-07-02T07:37:03,42.805,6.029,0.08,-0.046,-0.011,101.0,101.0,100.0,13.4,1505.2,333.9,-0.8,1.8,2471.406,13.29,0.092,119.9
2023-07-02T07:40:03,42.805,6.029,0.091,-0.013,0.018,101.0,102.0,100.0,13.3,1505.2,326.3,-0.8,1.8,2471.404,13.29,0.091,98.1
2023-07-02T07:43:03,42.805,6.029,0.064,-0.047,-0.02,101.0,102.0,101.0,13.3,1505.2,339.1,-0.8,1.8,2471.418,13.29,0.079,126.3
2023-07-02T07:46:03,42.805,6.029,0.083,-0.017,0.005,102.0,101.0,100.0,13.4,1505.2,333.8,-0.8,1.8,2471.423,13.29,0.084,101.6
2023-07-02T07:49:03,42.805,6.029,0.026,-0.012,-0.019,102.0,102.0,100.0,13.3,1505.2,342.3,-0.7,1.8,2471.393,13.29,0.028,114.8
2023-07-02T07:52:03,42.805,6.029,0.072,-0.038,0.02,102.0,100.0,102.0,13.4,1505.2,341.1,-0.8,1.8,2471.383,13.29,0.081,117.8
2023-07-02T07:55:03,42.805,6.029,0.063,-0.011,0.013,101.0,102.0,101.0,13.3,1505.2,329.8,-0.8,1.8,2471.365,13.29,0.063,99.9
2023-07-02T07:58:03,42.805,6.029,0.067,-0.031,-0.039,101.0,102.0,101.0,13.4,1505.2,333.9,-0.8,1.8,2471.362,13.29,0.073,114.8
2023-07-02T08:04:03,42.805,6.029,0.057,-0.023,-0.027,102.0,102.0,101.0,13.4,1505.2,337.5,-0.7,1.8,2471.454,13.28,0.061,112.0
2023-07-02T08:07:03,42.805,6.029,0.05,-0.004,0.001,102.0,101.0,100.0,13.4,1505.2,322.0,-0.7,1.8,2471.435,13.28,0.05,94.6
2023-07-02T08:10:03,42.805,6.029,0.037,-0.012,-0.011,105.0,99.0,101.0,13.3,1505.2,341.2,-0.7,1.8,2471.414,13.28,0.038,108.0
2023-07-02T08:13:03,42.805,6.029,0.056,-0.045,-0.001,101.0,102.0,100.0,13.4,1505.2,344.2,-0.7,1.8,2471.404,13.28,0.071,128.8
2023-07-02T08:16:03,42.805,6.029,0.082,-0.035,0.006,101.0,103.0,100.0,13.4,1505.2,329.4,-0.8,1.8,2471.407,13.29,0.089,113.1
2023-07-02T08:19:03,42.805,6.029,0.069,-0.049,-0.038,101.0,102.0,100.0,13.4,1505.2,332.3,-0.8,1.8,2471.429,13.29,0.084,125.4
2023-07-02T08:22:03,42.805,6.029,0.058,-0.021,0.022,101.0,103.0,100.0,13.4,1505.2,327.7,-0.7,1.8,2471.408,13.29,0.061,109.9
2023-07-02T08:25:03,42.805,6.029,0.07,-0.005,0.039,102.0,101.0,101.0,13.4,1505.2,328.4,-0.8,1.8,2471.431,13.29,0.07,94.1
2023-07-02T08:28:03,42.805,6.029,0.058,-0.049,-0.004,102.0,102.0,100.0,13.4,1505.2,349.3,-0.8,1.8,2471.364,13.29,0.075,130.2
2023-07-02T08:31:03,42.805,6.029,0.083,0.0,0.02,101.0,102.0,101.0,13.4,1505.2,320.0,-0.8,1.8,2471.396,13.29,0.082,90.0
2023-07-02T08:34:03,42.805,6.029,0.076,-0.038,0.002,102.0,103.0,102.0,13.4,1505.2,333.9,-0.7,1.8,2471.353,13.29,0.084,116.6
2023-07-02T08:37:03,42.805,6.029,0.05,-0.041,0.013,101.0,103.0,100.0,13.4,1505.2,351.4,-0.7,1.8,2471.384,13.29,0.064,129.3
2023-07-02T08:40:03,42.805,6.029,0.07,0.008,0.015,100.0,102.0,101.0,13.3,1505.2,321.7,-0.8,1.8,2471.397,13.29,0.07,83.5
2023-07-02T08:43:03,42.805,6.029,0.053,-0.012,-0.011,102.0,102.0,102.0,13.4,1505.2,335.5,-0.8,1.8,2471.366,13.29,0.054,102.8
2023-07-02T08:46:03,42.805,6.029,0.046,-0.002,-0.001,102.0,102.0,101.0,13.3,1505.2,338.5,-0.8,1.8,2471.386,13.29,0.046,92.5
2023-07-02T08:49:03,42.805,6.029,0.056,-0.009,-0.009,102.0,102.0,101.0,13.3,1505.2,334.9,-0.8,1.8,2471.381,13.29,0.056,99.1
2023-07-02T08:52:03,42.805,6.029,0.061,-0.04,-0.013,101.0,102.0,102.0,13.4,1505.2,345.4,-0.7,1.8,2471.358,13.29,0.072,123.3
2023-07-02T08:55:03,42.805,6.029,0.05,-0.008,-0.022,101.0,102.0,101.0,13.4,1505.2,320.9,-0.8,1.8,2471.385,13.29,0.05,99.1
2023-07-02T08:58:03,42.805,6.029,0.07,-0.02,-0.022,101.0,103.0,100.0,13.4,1505.2,329.4,-0.8,1.8,2471.407,13.29,0.072,105.9
2023-07-02T09:04:03,42.805,6.029,0.044,-0.019,-0.01,101.0,103.0,101.0,13.4,1505.2,337.6,-0.7,1.8,2471.416,13.28,0.047,113.4
2023-07-02T09:07:03,42.805,6.029,0.079,-0.041,0.013,101.0,102.0,101.0,13.4,1505.2,342.6,-0.8,1.8,2471.391,13.28,0.088,117.4
2023-07-02T09:10:03,42.805,6.029,0.045,-0.008,-0.002,100.0,101.0,101.0,13.4,1505.2,349.1,-0.8,1.8,2471.391,13.28,0.045,100.1
2023-07-02T09:13:03,42.805,6.029,0.059,-0.018,0.003,100.0,104.0,100.0,13.4,1505.2,320.9,-0.8,1.8,2471.401,13.28,0.061,107.0
2023-07-02T09:16:03,42.805,6.029,0.078,-0.005,0.036,99.0,103.0,101.0,13.4,1505.2,329.4,-0.7,1.8,2471.384,13.29,0.078,93.7
2023-07-02T09:19:03,42.805,6.029,0.084,-0.027,-0.002,100.0,102.0,101.0,13.4,1505.2,330.5,-0.7,1.8,2471.377,13.29,0.088,107.8
2023-07-02T09:22:03,42.805,6.029,0.055,-0.015,0.014,102.0,102.0,101.0,13.4,1505.2,333.0,-0.8,1.9,2471.329,13.29,0.057,105.3
2023-07-02T09:25:03,42.805,6.029,0.064,-0.009,0.005,102.0,101.0,101.0,13.4,1505.2,341.1,-0.8,1.8,2471.317,13.29,0.064,98.0
2023-07-02T09:28:03,42.805,6.029,0.038,-0.047,-0.028,102.0,101.0,101.0,13.4,1505.2,343.5,-0.8,1.8,2471.349,13.29,0.06,141.0
2023-07-02T09:31:03,42.805,6.029,0.04,-0.023,-0.042,101.0,101.0,101.0,13.4,1505.2,327.3,-0.8,1.8,2471.343,13.29,0.046,119.9
2023-07-02T09:34:03,42.805,6.029,0.053,0.007,0.022,104.0,103.0,100.0,13.4,1505.2,329.3,-0.8,1.8,2471.341,13.29,0.053,82.5
2023-07-02T09:37:03,42.805,6.029,0.055,-0.047,0.006,101.0,102.0,101.0,13.4,1505.2,343.5,-0.8,1.8,2471.316,13.29,0.072,130.5
2023-07-02T09:40:03,42.805,6.029,0.041,-0.008,-0.007,102.0,102.0,101.0,13.4,1505.2,322.1,-0.8,1.8,2471.353,13.29,0.041,101.0
2023-07-02T09:43:03,42.805,6.029,0.07,-0.004,0.002,102.0,103.0,101.0,13.3,1505.2,334.7,-0.8,1.8,2471.332,13.29,0.07,93.3
2023-07-02T09:46:03,42.805,6.029,0.07,-0.016,-0.015,102.0,101.0,100.0,13.4,1505.2,336.5,-0.8,1.8,2471.347,13.29,0.071,102.9
2023-07-02T09:49:03,42.805,6.029,0.066,0.0,-0.056,102.0,101.0,101.0,13.4,1505.2,321.3,-0.8,1.8,2471.296,13.29,0.065,90.0
2023-07-02T09:52:03,42.805,6.029,0.066,-0.012,-0.005,102.0,103.0,101.0,13.3,1505.2,337.2,-0.8,1.8,2471.273,13.29,0.067,100.3
2023-07-02T09:55:03,42.805,6.029,0.09,-0.012,-0.021,101.0,102.0,101.0,13.4,1505.2,331.8,-0.8,1.8,2471.334,13.29,0.09,97.6
2023-07-02T09:58:03,42.805,6.029,0.056,-0.022,-0.009,102.0,102.0,101.0,13.4,1505.2,335.4,-0.8,1.8,2471.294,13.29,0.06,111.4